Stations météo

Publicité
Kleine Brogel, Belgique (6479): Température de l'air & dewpoint: 18.01.2021 07:00:00 - 24.01.2021 07:00:00 (CET)Kleine Brogel, Belgique (6479): Vitesse du vent & gusts: 18.01.2021 07:00:00 - 24.01.2021 07:00:00 (CET)Kleine Brogel, Belgique (6479): Direction du vent: 18.01.2021 07:00:00 - 24.01.2021 07:00:00 (CET)Kleine Brogel, Belgique (6479): reduced air pressure: 18.01.2021 07:00:00 - 24.01.2021 07:00:00 (CET)Kleine Brogel, Belgique (6479): visibility: 18.01.2021 07:00:00 - 24.01.2021 07:00:00 (CET)
Date & Time tt [°C] td [°C] ff [km/h] ff [knt] fx [km/h] fx [knt] dd ppp [hPa] vv [km]
24.01.2021 07:00:00 - - - - - - - - -
24.01.2021 06:00:00 1,0 0,4 11 6 25 14 W 997,0 7
24.01.2021 05:00:00 0,8 0,4 14 8 25 14 W 996,4 5
24.01.2021 04:00:00 0,5 0,2 14 8 - - W 995,8 3,0
24.01.2021 03:00:00 0,4 0,1 11 6 18 10 W 995,1 3,0
24.01.2021 02:00:00 0,1 0,0 7 4 18 10 WNW 994,6 1,0
24.01.2021 01:00:00 0,0 0,0 11 6 - - WNW 994,0 0,2
24.01.2021 00:00:00 0,1 0,1 7 4 18 10 NW 993,5 0,5
23.01.2021 23:00:00 0,3 0,0 7 4 22 12 NW 993,2 1,1
23.01.2021 22:00:00 2,9 2,1 4 2 - - N 992,9 8
23.01.2021 21:00:00 2,7 1,9 4 2 7 4 N 992,9 15
23.01.2021 20:00:00 2,5 1,1 4 2 7 4 N 993,0 20
23.01.2021 19:00:00 2,2 1,1 4 2 - - N 992,9 20
23.01.2021 18:00:00 2,7 1,0 4 2 4 2 N 993,2 20
23.01.2021 17:00:00 4,2 1,4 4 2 4 2 N 993,4 20
23.01.2021 16:00:00 5,5 1,0 4 2 - - N 993,5 20
23.01.2021 15:00:00 5,5 1,2 11 6 18 10 SSW 993,7 20
23.01.2021 14:00:00 5,5 1,5 11 6 22 12 SSW 994,5 20
23.01.2021 13:00:00 5,3 1,6 7 4 - - SSW 995,0 20
23.01.2021 12:00:00 5,0 1,5 14 8 25 14 SSW 995,4 20
23.01.2021 11:00:00 4,6 2,0 7 4 18 10 SSW 995,7 20
23.01.2021 10:00:00 3,9 1,5 11 6 - - SW 996,0 20
23.01.2021 09:00:00 2,7 1,1 11 6 18 10 SSW 996,3 20
23.01.2021 08:00:00 3,2 1,5 11 6 22 12 SSW 996,1 20
23.01.2021 07:00:00 2,8 1,4 11 6 - - SSW 995,8 19
23.01.2021 06:00:00 2,7 1,4 11 6 22 12 SSW 996,0 19
23.01.2021 05:00:00 2,7 1,3 11 6 18 10 S 996,2 19
23.01.2021 04:00:00 2,1 1,0 7 4 - - S 996,6 18
23.01.2021 03:00:00 1,6 0,4 7 4 18 10 S 996,7 18
23.01.2021 02:00:00 0,8 -0,5 7 4 14 8 S 996,9 20
23.01.2021 01:00:00 0,7 -0,5 7 4 - - S 997,2 20
23.01.2021 00:00:00 1,2 -0,2 4 2 7 4 N 997,3 19
22.01.2021 23:00:00 0,2 -0,9 4 2 11 6 N 997,3 20
22.01.2021 22:00:00 0,8 -0,5 4 2 - - N 997,5 19
22.01.2021 21:00:00 1,3 -0,3 4 2 7 4 N 997,3 16
22.01.2021 20:00:00 2,1 0,1 4 2 4 2 N 996,9 20
22.01.2021 19:00:00 2,8 0,8 4 2 - - N 996,6 20
22.01.2021 18:00:00 3,5 -0,6 4 2 7 4 N 995,9 20
22.01.2021 17:00:00 4,7 0,3 4 2 14 8 N 995,5 20
22.01.2021 16:00:00 6,4 0,4 11 6 - - WSW 995,4 20
22.01.2021 15:00:00 6,9 1,4 14 8 25 14 WSW 995,1 20
22.01.2021 14:00:00 6,3 1,6 18 10 25 14 WSW 994,8 20
22.01.2021 13:00:00 5,8 2,8 14 8 - - WSW 994,5 20
22.01.2021 12:00:00 5,2 3,1 18 10 29 16 SW 994,0 20
22.01.2021 11:00:00 4,7 3,2 18 10 25 14 WSW 993,6 10
22.01.2021 10:00:00 4,0 2,9 14 8 - - SW 992,6 10
22.01.2021 09:00:00 3,5 2,7 11 6 18 10 SSW 991,9 10
22.01.2021 08:00:00 3,5 2,6 11 6 22 12 SSW 991,0 20
22.01.2021 07:00:00 3,5 2,6 11 6 - - SW 990,5 20
22.01.2021 06:00:00 3,2 2,4 14 8 25 14 SW 990,2 20
22.01.2021 05:00:00 2,9 2,2 14 8 22 12 SW 989,7 20
22.01.2021 04:00:00 2,8 2,1 11 6 - - SW 989,0 20
22.01.2021 03:00:00 2,9 2,0 14 8 36 19 W 988,0 20
22.01.2021 02:00:00 4,3 2,8 22 12 68 37 W 985,9 16
22.01.2021 01:00:00 8,6 7,1 22 12 - - SSW 982,9 17
22.01.2021 00:00:00 9,3 6,8 25 14 50 27 SSW 983,7 11
21.01.2021 23:00:00 9,4 6,9 25 14 50 27 SSW 983,8 20
21.01.2021 22:00:00 8,1 7,1 11 6 - - SSW 983,9 20
21.01.2021 21:00:00 7,1 6,0 11 6 25 14 S 985,5 12
21.01.2021 20:00:00 5,8 4,9 7 4 14 8 SE 987,3 11
21.01.2021 19:00:00 6,1 3,9 7 4 - - S 990,0 17
21.01.2021 18:00:00 7,9 2,8 18 10 40 21 SSW 991,3 20
21.01.2021 17:00:00 8,0 2,7 22 12 43 23 SSW 992,0 20
21.01.2021 16:00:00 7,9 2,5 25 14 - - SSW 992,5 20
21.01.2021 15:00:00 8,1 2,7 29 16 50 27 SW 992,8 20
21.01.2021 14:00:00 7,8 2,7 29 16 50 27 SW 993,0 20
21.01.2021 13:00:00 7,5 2,5 32 18 - - SW 993,6 20
21.01.2021 12:00:00 7,3 2,5 29 16 54 29 SW 993,7 20
21.01.2021 11:00:00 6,5 2,8 22 12 43 23 SSW 993,7 20
21.01.2021 10:00:00 - - - - - - - - -
21.01.2021 09:00:00 5,5 2,7 22 12 36 19 SSW 992,7 20
21.01.2021 08:00:00 5,6 3,1 22 12 47 25 SSW 991,7 20
21.01.2021 07:00:00 5,8 3,5 29 16 - - SW 990,5 20
21.01.2021 06:00:00 5,9 3,1 40 21 76 41 WSW 989,0 12
21.01.2021 05:00:00 11,3 5,6 36 19 68 37 SSW 985,3 20
21.01.2021 04:00:00 12,5 4,3 40 21 - - SSW 985,6 20
21.01.2021 03:00:00 12,2 3,8 32 18 65 35 SSW 986,0 20
21.01.2021 02:00:00 11,0 3,8 22 12 43 23 S 987,1 20
21.01.2021 01:00:00 10,9 4,4 22 12 - - S 988,7 20
21.01.2021 00:00:00 10,9 4,4 18 10 36 19 S 990,4 20
20.01.2021 23:00:00 10,5 4,6 14 8 40 21 S 991,5 20
20.01.2021 22:00:00 10,7 4,5 18 10 - - SSW 992,4 20
20.01.2021 21:00:00 10,6 4,3 14 8 29 16 S 993,4 20
20.01.2021 20:00:00 9,2 2,2 11 6 22 12 S 994,3 20
20.01.2021 19:00:00 9,7 1,7 11 6 - - S 994,8 20
20.01.2021 18:00:00 10,3 1,6 14 8 29 16 S 995,1 20
20.01.2021 17:00:00 10,4 1,3 14 8 36 19 S 995,3 20
20.01.2021 16:00:00 10,5 1,5 14 8 - - SSW 996,0 20
20.01.2021 15:00:00 10,6 1,9 18 10 32 18 S 996,1 18
20.01.2021 14:00:00 10,1 1,6 18 10 36 19 SSW 997,4 18
20.01.2021 13:00:00 9,8 1,0 22 12 - - SSW 998,5 20
20.01.2021 12:00:00 8,6 1,2 18 10 40 21 SSW 999,1 20
20.01.2021 11:00:00 8,5 1,2 22 12 36 19 SSW 999,8 20
20.01.2021 10:00:00 8,1 2,5 18 10 - - SSW 1000,1 20
20.01.2021 09:00:00 6,5 2,1 21 11 50 27 SSW 1000,7 8
20.01.2021 08:00:00 6,4 4,3 18 10 40 21 SSW 1000,8 10
20.01.2021 07:00:00 7,4 2,8 22 12 - - SSW 1000,8 20
20.01.2021 06:00:00 7,0 2,0 22 12 36 19 SSW 1001,3 20
20.01.2021 05:00:00 6,8 3,2 18 10 36 19 SSW 1001,8 20
20.01.2021 04:00:00 6,8 2,7 22 12 - - SSW 1002,7 20
20.01.2021 03:00:00 6,5 2,6 22 12 40 21 SSW 1003,2 20
20.01.2021 02:00:00 6,4 2,5 22 12 40 21 SSW 1003,7 20
20.01.2021 01:00:00 6,1 2,5 22 12 - - SSW 1004,3 20
20.01.2021 00:00:00 6,1 3,1 29 16 43 23 SSW 1005,2 20
19.01.2021 23:00:00 6,3 3,6 22 12 40 21 SSW 1006,0 20
19.01.2021 22:00:00 6,0 4,0 18 10 - - SSW 1006,8 20
19.01.2021 21:00:00 6,0 4,2 25 14 43 23 SSW 1007,7 15
19.01.2021 20:00:00 6,0 4,4 25 14 47 25 SSW 1007,8 15
19.01.2021 19:00:00 6,4 5,3 25 14 - - SW 1008,0 8
19.01.2021 18:00:00 7,3 6,2 25 14 43 23 SW 1007,7 8
19.01.2021 17:00:00 8,0 6,8 25 14 47 25 SW 1007,7 8
19.01.2021 16:00:00 8,8 7,3 32 18 - - SW 1007,2 15
19.01.2021 15:00:00 9,0 7,3 32 18 54 29 SW 1007,1 15
19.01.2021 14:00:00 8,8 7,3 36 19 58 31 WSW 1007,1 15
19.01.2021 13:00:00 7,5 6,6 29 16 - - SW 1007,2 7
19.01.2021 12:00:00 6,8 5,9 32 18 54 29 SW 1007,5 8
19.01.2021 11:00:00 5,9 4,8 32 18 58 31 SW 1007,5 8
19.01.2021 10:00:00 5,5 4,3 36 19 - - SW 1007,3 5
19.01.2021 09:00:00 5,1 4,1 36 19 58 31 SSW 1008,0 10
19.01.2021 08:00:00 4,8 3,8 29 16 54 29 SSW 1008,8 6
19.01.2021 07:00:00 4,9 3,6 26 14 - - SSW 1009,7 10
19.01.2021 06:00:00 4,5 3,4 25 14 43 23 SSW 1011,3 20
19.01.2021 05:00:00 4,3 2,4 26 14 40 21 SSW 1012,7 10
19.01.2021 04:00:00 4,1 1,9 22 12 - - SSW 1014,1 20
19.01.2021 03:00:00 4,1 1,3 22 12 36 19 SSW 1015,6 20
19.01.2021 02:00:00 4,6 1,4 22 12 43 23 SSW 1016,6 20
19.01.2021 01:00:00 5,0 2,4 22 12 - - SSW 1017,7 20
19.01.2021 00:00:00 4,9 3,1 22 12 32 18 SW 1018,6 20
18.01.2021 23:00:00 4,8 3,7 22 12 36 19 SW 1019,2 13
18.01.2021 22:00:00 5,0 3,4 21 11 - - SW 1019,7 10
18.01.2021 21:00:00 4,8 3,2 18 10 32 18 SW 1020,2 12
18.01.2021 20:00:00 4,9 3,1 21 11 32 18 SW 1020,7 10
18.01.2021 19:00:00 5,1 3,1 18 10 - - SW 1020,8 12
18.01.2021 18:00:00 5,4 3,2 22 12 29 16 SW 1020,7 12
18.01.2021 17:00:00 5,5 3,1 22 12 36 19 SW 1021,0 12
18.01.2021 16:00:00 5,8 2,9 18 10 - - SW 1021,3 12
18.01.2021 15:00:00 6,0 2,9 22 12 36 19 SW 1021,6 12
18.01.2021 14:00:00 5,8 2,9 25 14 36 19 WSW 1022,2 12
18.01.2021 13:00:00 - - - - - - - - -
18.01.2021 12:00:00 4,9 2,6 22 12 32 18 SW 1023,2 12
18.01.2021 11:00:00 3,7 2,1 18 10 29 16 SW 1023,8 12
18.01.2021 10:00:00 2,5 1,6 15 8 - - SW 1023,7 9
18.01.2021 09:00:00 2,0 1,5 14 8 22 12 SSW 1023,7 9
18.01.2021 08:00:00 2,0 2,0 13 7 - - SW - 9
18.01.2021 07:00:00 2,9 2,3 15 8 - - SW 1023,7 9

tt = Température de l'air
td = dewpoint
ff = Vitesse du vent
fx = gusts
dd = Direction du vent
ppp = reduced air pressure
vv = visibility

stations d'obs. à proximité